Location: Wagman Observatory
(40.6260°N, 79.8130°W)
Time: 21:14:53
(UTC-04:00)

Daily predictions for brighter satellites

Satellite Brightness Start Highest point End
(mag) Time Altitude Azimuth Time Altitude Azimuth Time Altitude Azimuth
METEOR-M 4.2 20:17:07 10° SSE 20:22:27 88° WSW 20:27:51 10° NNW
Cosmos 2369 4.1 20:20:29 10° S 20:25:46 42° ESE 20:31:05 10° NE
Lacrosse 5 rocket 2.3 20:22:45 10° NNW 20:26:06 29° NE 20:29:19 10° E
Cosmos 1777 Rocket 4.0 20:21:01 10° NNW 20:26:18 81° ENE 20:31:34 10° SSE
Cosmos 1633 3.0 20:22:50 10° SSW 20:26:29 67° W 20:30:07 10° N
Cosmos 1315 Rocket 3.6 20:24:01 10° SSW 20:27:57 58° W 20:31:59 10° N
H-2A R/B 3.4 20:24:33 10° SE 20:28:08 37° ENE 20:31:47 10° N
Meteor 2-21 Rocket 4.5 20:26:54 10° S 20:33:06 79° E 20:39:17 10° N
Helios 1A 3.7 20:30:07 10° S 20:34:12 58° WSW 20:38:22 10° NNW
Meteor 1-23 Rocket 4.3 20:28:49 10° N 20:34:29 89° E 20:40:12 10° S
NOSS 3-4 (A) 3.9 20:29:27 10° NNW 20:36:31 78° NE 20:43:59 10° SE
NOSS 3-4 (C) 3.9 20:29:35 10° NNW 20:36:38 78° NE 20:44:05 10° SE
CZ-4 DEB 4.5 20:38:27 11° ESE 20:40:27 17° ENE 20:42:34 10° NNE
Cosmos 2208 Rocket 4.0 20:39:24 10° SSW 20:44:40 77° ESE 20:50:05 10° NNE
Meteor 2-15 4.4 20:39:18 10° N 20:45:24 81° E 20:51:27 10° S
CZ-2D R/B 3.2 20:42:52 10° SSE 20:46:42 71° ENE 20:50:35 10° N
Cosmos 1025 Rocket 4.3 20:44:04 10° NNW 20:48:14 44° W 20:52:20 10° SSW
H-2A R/B 3.9 20:46:30 10° E 20:48:22 14° ENE 20:50:25 10° NNE
Cosmos 1461 2.8 20:44:34 10° NNW 20:48:39 66° ENE 20:52:18 12° SE
OAO 2 Rocket 4.0 20:45:31 10° SW 20:50:07 37° SSE 20:54:03 14° ESE
Hubble Space Telescope 3.2 20:49:55 10° SSW 20:50:48 11° SSW 20:51:42 10° S
Meteor 2-15 Rocket 4.4 20:45:01 10° N 20:51:08 77° E 20:57:11 10° SSE
Cosmos 1892 Rocket 4.0 20:46:44 10° NNW 20:51:12 69° W 20:55:38 10° S
Cosmos 2123 Rocket 3.9 20:45:08 10° N 20:51:19 74° E 20:57:29 10° SSE
Cosmos 1626 Rocket 4.1 20:47:23 10° N 20:51:33 40° ENE 20:55:39 10° SSE
Cosmos 1939 Rocket 4.3 20:50:49 14° ESE 20:53:21 23° ENE 20:56:40 10° NNE
FENGYUN 3A 3.7 20:50:10 10° SSE 20:55:31 89° WSW 21:00:55 10° NNW
Cosmos 1455 Rocket 3.0 20:51:13 10° S 20:55:32 88° W 20:59:54 10° N
Cosmos 2227 Rocket 2.2 20:52:43 10° NNW 20:58:25 80° ENE 21:04:04 10° SSE
Cosmos 1656 3.9 20:54:33 10° S 20:59:51 45° ESE 21:05:08 10° NE
Cosmos 1602 Rocket 3.8 20:56:05 10° N 21:00:27 50° E 21:04:39 10° SSE
Cosmos 1570 Rocket 4.4 20:55:16 10° SSW 21:00:33 71° WNW 21:05:50 10° NNE
Envisat 3.9 20:57:13 15° ESE 21:00:41 30° ENE 21:05:05 10° N
CZ-4B DEB 4.2 20:59:12 10° S 21:02:18 40° W 21:05:27 10° NNW
Cosmos 1346 Rocket 3.1 21:00:05 10° NNW 21:04:01 67° W 21:07:57 10° S
Cosmos 1500 3.9 21:02:27 13° SSE 21:05:23 32° E 21:08:47 10° NNE
NOSS 7 (H) 4.3 21:03:34 10° SSW 21:06:54 88° SE 21:10:20 10° NE
Iridium 4 Rocket 3.4 21:04:48 10° N 21:09:50 56° E 21:14:17 11° SSE
ALOS 2.9 21:05:53 10° S 21:10:28 57° W 21:15:06 10° NNW
Cosmos 2082 3.7 21:07:01 10° NNW 21:12:40 85° WSW 21:18:05 11° SSE
Cosmos 2084 4.1 21:08:56 10° NNW 21:12:45 38° NE 21:14:49 23° ESE
Cosmos 2297 Rocket 2.2 21:08:14 10° NNW 21:13:55 77° ENE 21:18:32 16° SSE
Cosmos 220 Rocket 3.8 21:13:55 10° NNW 21:18:08 72° ENE 21:20:50 21° SSE
Cosmos 1340 4.3 21:15:36 10° NNE 21:18:19 18° ENE 21:18:25 18° ENE
Cosmos 2150 Rocket 4.3 21:13:41 10° N 21:18:40 47° ENE 21:21:30 24° SE
Resurs 01 Rocket 4.3 21:16:37 10° SW 21:19:51 20° W 21:23:06 10° NW
Cosmos 1153 Rocket 4.4 21:13:42 10° S 21:19:52 73° E 21:26:00 10° N
RESURS DK-1 3.5 21:16:33 10° N 21:20:08 27° ENE 21:21:23 23° E
CZ-3C R/B 4.2 20:34:01 10° WSW 21:20:42 33° SSW 21:28:20 14° SSE
USA 186 3.2 21:22:25 10° SSW 21:25:28 36° W 21:28:19 10° NNW
YAOGAN 6 4.3 21:26:58 19° ENE 21:26:58 19° ENE 21:29:31 10° NNE
DELTA 2 R/B (1) 3.6 21:22:35 10° W 21:28:07 68° SSW 21:31:02 28° ESE
BREEZE-M DEB (TANK) 4.1 21:10:21 10° SW 21:28:24 72° SSE 21:32:42 14° ENE
Cosmos 1515 3.6 21:24:52 10° N 21:28:43 77° E 21:30:46 26° SSE
Cosmos 1447 Rocket 4.5 21:25:01 10° N 21:31:21 87° E 21:37:42 10° S
ERS-1 Rocket 2.9 21:27:56 19° SSE 21:31:34 77° ENE 21:36:36 10° N
Cosmos 1606 Rocket 4.3 21:34:01 31° E 21:34:06 31° E 21:38:01 10° NNE
Cosmos 1802 Rocket 4.3 21:29:34 16° SSE 21:34:22 47° E 21:40:29 10° NNE
Cosmos 1743 2.9 21:40:01 46° ESE 21:40:24 48° E 21:44:11 10° NNE
Cosmos 1898 Rocket 3.4 21:35:28 10° NNW 21:40:48 80° ENE 21:43:26 30° SSE
OTV 4 2.2 21:39:03 10° WSW 21:41:08 22° SSW 21:41:08 22° SSW
Cosmos 1763 Rocket 3.9 21:43:23 36° ESE 21:43:47 37° ESE 21:48:27 10° NE
Lacrosse 5 2.1 21:41:29 10° NW 21:46:29 56° NE 21:48:07 38° E
Cosmos 1066 Rocket 4.2 21:41:28 10° N 21:47:09 88° E 21:50:49 24° S
Tiangong 1 1.3 21:44:49 10° WNW 21:47:53 60° N 21:47:54 60° N
Cosmos 2016 Rocket 4.1 21:47:11 29° SSE 21:50:03 52° E 21:56:01 10° NNE
Cosmos 1697 Rocket 2.6 21:45:19 10° SSW 21:50:58 88° ESE 21:56:40 10° NNE
SPOT 5 3.0 21:50:56 42° SE 21:52:21 58° ENE 21:57:07 10° N
Cosmos 1975 4.4 21:51:16 10° SW 21:55:02 35° WNW 21:58:51 10° N
SL-16 R/B 4.2 22:00:59 13° ENE 22:00:59 13° ENE 22:01:54 10° NE
Cosmos 468 Rocket 4.1 21:52:41 10° SSW 21:57:48 75° WNW 22:02:56 10° NNE
Cosmos 1726 Rocket 3.9 21:58:23 46° ENE 21:58:23 46° ENE 22:02:10 10° NNE
Cosmos 2173 Rocket 4.0 21:56:18 10° S 22:02:37 90° SE 22:09:00 10° N
USA 215 4.2 22:00:24 22° ENE 22:03:49 37° NNE 22:09:43 10° NW
Lacrosse 5 rocket 2.4 22:02:03 10° WNW 22:05:15 28° SW 22:05:31 28° SW
Cosmos 841 Rocket 3.5 22:05:13 53° ESE 22:05:18 53° ESE 22:10:23 10° NNE
Cosmos 1842 4.5 22:01:49 10° N 22:04:21 30° NE 22:04:21 30° NE
Cosmos 1814 Rocket 4.2 22:01:47 10° SSW 22:07:07 75° WNW 22:12:27 10° NNE
Cosmos 1825 Rocket 3.5 22:07:31 10° N 22:11:58 81° W 22:12:29 68° SSW
ARGOS 3.4 22:12:12 47° E 22:12:37 49° ENE 22:17:47 10° N
Cosmos 1980 Rocket 2.1 22:07:53 10° SSW 22:13:33 83° ESE 22:19:16 10° NNE
Cosmos 2100 Rocket 4.3 22:08:28 10° SSW 22:14:43 67° W 22:20:56 10° N
Cosmos 1864 Rocket 4.5 22:17:11 53° ESE 22:17:52 56° E 22:23:50 10° NNE
Cosmos 967 Rocket 4.5 22:12:16 10° NNW 22:18:38 69° ENE 22:19:56 55° ESE
Cosmos 2061 Rocket 4.2 22:12:26 10° SSW 22:18:43 69° W 22:24:59 10° N
Cosmos 1953 Rocket 3.5 22:17:07 10° N 22:21:30 86° NW 22:21:30 86° NW
USA 245 4.4 22:21:02 56° SE 22:22:22 73° ENE 22:28:43 10° N
Tsikada Rocket 4.1 22:16:16 10° N 22:22:37 59° E 22:23:28 54° ESE
H-2A R/B 2.5 22:23:39 50° WSW 22:23:56 51° W 22:27:58 10° NNW
Meteor 1-15 Rocket 4.3 22:24:50 59° E 22:24:56 59° E 22:30:42 10° NNE
Terra 3.4 22:28:05 23° NE 22:28:05 23° NE 22:30:49 10° NNE
MetOp-B 4.2 22:28:30 59° SSW 22:29:27 75° WSW 22:34:50 10° NNW
Cosmos 1666 4.4 22:31:54 28° N 22:31:54 28° N 22:33:47 10° N
Milstar 3 Cent rocket 4.2 22:12:57 10° W 22:30:52 44° SSW 22:34:14 37° SSE
OAO 2 Rocket 4.3 22:29:40 10° WSW 22:33:01 35° SW 22:33:01 35° SW
ASTEX 1 3.8 22:33:33 10° N 22:38:30 62° W 22:39:19 53° SW
Envisat 4.5 22:37:26 22° SW 22:39:37 31° W 22:44:08 10° NW
Cosmos 2228 4.5 22:41:50 29° NNE 22:41:50 29° NNE 22:44:01 10° NNE
Cosmos 1758 Rocket 4.1 22:36:11 10° NNW 22:39:54 55° NW 22:39:54 55° NW
Cosmos 2263 Rocket 3.4 22:37:29 10° N 22:41:51 29° NE 22:41:51 29° NE
Cosmos 2322 Rocket 3.3 22:48:05 33° NE 22:48:05 33° NE 22:51:10 10° NNE
Cosmos 1816 Rocket 4.4 22:40:19 10° N 22:46:42 72° E 22:46:49 72° E
H-2A R/B 2.8 22:48:51 41° NNE 22:48:51 41° NNE 22:52:24 10° N
Cosmos 1725 Rocket 3.9 22:47:52 63° SSW 22:48:54 81° W 22:55:11 10° N
Cosmos 2360 4.5 22:53:09 48° WSW 22:54:37 66° WNW 23:00:20 10° NNE
Meteor 2-9 Rocket 4.4 22:56:00 64° W 22:56:16 65° W 23:01:41 10° N
RESURS DK-1 4.4 22:54:42 10° NW 22:57:19 23° W 22:57:19 23° W
Cosmos 2098 Rocket 4.5 22:58:17 38° SW 23:00:53 59° W 23:06:47 10° N
Cosmos 2058 Rocket 4.4 23:03:28 39° NW 23:03:28 39° NW 23:07:07 10° N
CZ-4B R/B 4.1 22:58:29 10° N 23:02:03 48° NNW 23:02:03 48° NNW
Meteor 2-17 Rocket 4.5 23:04:12 71° NNE 23:04:12 71° NNE 23:09:35 10° N
SPOT 1/Viking Rocket 4.3 23:07:00 49° W 23:07:00 49° W 23:11:44 10° NNW
Cosmos 2233 Rocket 4.1 23:15:54 73° NNW 23:15:54 73° NNW 23:21:34 10° N
Lacrosse 5 3.9 23:25:06 10° WNW 23:27:19 20° W 23:27:19 20° W
SL-16 R/B 3.2 23:42:47 42° NNW 23:42:47 42° NNW 23:46:58 10° NNE
USA 215 3.6 23:47:44 60° WNW 23:47:44 60° WNW 23:53:02 10° NW
